RH
66 67 70 71 70 69 70 73 72 72 72 68 68 68 64 62 61 59 60 66 65 60 59 59 58 57 56 54 50 47 43 40 40 41 41 45 49 51 49 47 47 47 47 48 47 46 48 50 50 51 51 51 51 52 51 50 50 52 55 55 55 55 55 56 55 55 55 56 56 54 51 50 48 44 43 41 40 40 40 38 37 38 37 36 36
63 64 67 69 69 69 71 73 76 76 71 64 63 71 71 65 62 63 65 67 62 59 59 59 58 56 53 51 49 48 45 43 43 43 43 45 49 50 48 46 46 46 47 47 46 46 49 49 48 49 51 51 53 54 51 50 49 51 54 55 54 54 54 54 55 55 56 57 56 55 52 51 50 44 42 41 41 41 40 38 36 35 34 34 35
60 62 63 65 65 66 67 70 75 74 69 65 63 70 73 67 64 64 63 61 59 58 58 57 56 52 51 50 51 51 49 48 46 46 45 47 50 49 47 47 47 46 47 47 47 47 47 48 48 49 50 52 54 55 53 52 52 51 51 52 53 53 54 54 54 55 56 56 55 53 51 50 47 44 41 39 38 37 37 35 35 33 31 32 35
57 59 59 61 62 63 63 63 65 67 67 66 63 62 62 59 60 60 57 57 57 56 55 54 53 51 51 52 53 53 54 52 49 48 45 49 53 49 47 48 47 46 48 48 47 47 46 47 50 50 49 51 55 57 55 54 53 52 51 50 51 52 52 53 53 53 54 55 54 51 49 49 46 40 36 31 29 29 30 30 30 30 29 30 33
54 55 56 58 59 59 58 58 58 62 65 64 61 57 54 52 53 55 55 56 56 55 54 52 53 54 53 54 55 55 56 56 54 50 48 54 57 53 49 48 48 48 51 50 48 49 48 46 49 51 50 51 55 58 57 55 52 51 52 51 52 52 51 53 52 50 50 51 50 49 46 45 39 32 28 25 25 25 26 27 27 28 29 29 31
52 52 54 55 55 54 51 52 54 55 57 58 56 52 50 51 50 53 56 56 55 56 55 53 55 57 56 57 57 56 55 58 57 53 54 59 59 58 54 51 51 51 51 51 50 50 51 49 48 51 53 51 52 57 57 55 53 51 53 53 52 52 51 52 49 46 45 45 46 44 39 35 31 27 25 25 25 26 27 27 28 29 29 29 29
47 48 50 51 49 49 47 49 51 50 50 50 49 47 49 51 52 56 58 58 58 57 57 56 56 58 60 61 61 58 57 58 59 58 58 60 60 61 59 56 54 52 51 51 51 50 52 53 52 55 55 53 54 57 59 57 54 53 53 52 51 51 49 47 43 41 39 37 37 35 31 29 28 28 28 28 27 28 29 29 28 28 27 27 27
43 43 44 45 44 44 44 45 45 45 44 44 45 45 48 51 54 58 58 60 60 59 60 59 58 60 62 64 64 62 60 59 60 62 62 62 62 64 65 61 57 53 53 53 53 52 52 53 55 58 56 54 54 55 57 57 56 55 53 50 48 46 42 38 35 33 30 29 29 29 29 29 30 30 30 30 29 30 31 31 30 29 28 27 26
40 41 41 42 44 43 44 44 43 43 42 43 44 44 47 52 55 57 59 61 61 62 61 62 64 63 64 65 67 66 63 61 62 65 65 66 64 65 68 64 60 56 54 54 53 53 51 52 54 57 56 54 54 54 55 56 57 55 52 48 43 38 32 30 28 27 27 27 28 28 29 30 31 32 32 32 31 31 31 31 31 30 30 29 29
40 41 43 44 46 47 47 47 48 47 47 49 50 50 52 57 59 58 60 62 62 64 63 64 66 65 67 69 70 69 67 65 65 66 64 67 66 65 70 68 64 59 55 54 53 53 52 52 53 54 56 57 56 55 55 55 56 52 46 40 33 27 24 23 24 25 27 28 29 30 30 30 32 32 32 32 31 30 30 30 30 29 29 31 31
41 43 44 46 47 47 48 50 51 52 52 54 57 59 60 61 63 63 62 61 62 66 65 64 66 66 69 71 72 70 69 68 67 67 64 67 69 65 71 71 66 60 56 56 55 54 52 51 52 53 54 56 57 56 54 55 53 46 37 30 24 21 20 21 22 24 26 28 30 30 29 30 30 30 30 31 31 31 29 28 28 29 30 32 33
42 43 45 47 47 48 51 53 54 55 56 58 61 65 65 63 65 68 67 64 64 68 67 66 67 68 71 73 73 70 68 70 69 69 66 70 70 65 69 71 65 60 57 57 57 53 52 52 52 53 52 55 57 56 57 52 44 37 30 24 21 21 21 22 23 25 27 28 27 27 27 28 29 28 28 29 28 28 27 26 27 29 31 32 33
43 45 48 49 51 54 57 56 56 58 59 59 62 65 66 66 65 68 71 68 67 68 69 69 69 71 73 73 73 70 67 70 71 69 68 71 72 66 66 67 64 60 58 58 58 52 50 51 51 52 52 54 52 52 55 44 34 31 26 23 22 22 23 24 26 26 26 25 24 24 25 27 27 26 26 26 26 27 27 28 28 29 30 30 31
44 47 50 52 55 58 61 61 60 61 62 60 61 65 65 66 65 68 72 71 69 69 70 71 72 73 73 71 71 69 67 70 70 68 69 70 71 70 66 65 63 59 57 58 58 53 50 48 49 54 55 54 50 50 50 38 30 28 26 25 24 25 25 26 26 25 24 24 24 24 25 25 25 25 26 27 28 29 29 30 29 30 30 31 31
45 48 51 54 56 59 63 64 62 64 65 61 61 65 65 64 64 66 70 71 70 70 71 72 73 73 72 71 70 68 69 69 68 69 69 66 65 65 63 62 60 55 55 58 57 54 51 46 48 57 56 54 53 48 42 32 29 28 28 29 28 28 27 25 24 23 24 24 24 24 24 25 26 27 28 29 29 30 31 31 31 32 32 32 32
48 51 54 57 59 61 64 63 61 63 65 62 60 64 66 65 64 66 68 69 71 70 70 71 72 72 72 71 70 69 69 66 66 69 65 59 54 51 52 55 58 56 55 55 53 51 46 40 43 52 53 52 49 39 32 30 31 31 31 32 31 29 27 25 24 24 24 24 24 24 25 26 27 29 29 30 30 31 31 32 32 32 32 30 29
52 55 58 60 61 64 65 63 59 61 64 63 61 63 66 67 66 67 67 68 70 70 69 69 71 71 71 71 70 68 68 64 64 64 59 53 46 44 45 48 53 54 51 48 45 42 38 35 39 43 45 44 37 31 31 32 33 34 34 33 31 29 27 26 26 25 24 24 24 25 27 28 29 30 30 31 31 32 32 32 31 30 29 28 28
55 59 61 62 64 66 65 61 56 58 65 65 63 65 68 68 67 66 65 67 69 69 69 68 69 70 71 70 68 66 65 63 61 61 57 50 44 43 45 44 45 44 42 39 35 34 32 34 36 38 39 36 30 30 32 33 34 35 33 31 30 29 27 27 27 26 26 26 27 28 29 29 29 30 31 31 31 31 30 29 28 27 27 26 25
59 61 63 65 66 65 61 57 53 58 67 67 65 66 69 68 68 66 64 67 68 67 67 69 69 70 70 69 68 65 64 64 61 58 53 47 45 44 44 41 38 36 35 33 30 30 30 32 34 36 35 31 30 32 33 34 35 34 32 32 31 30 29 29 28 27 28 28 28 30 30 29 29 30 30 30 29 28 27 25 24 24 25 25 25
62 62 63 66 64 61 59 55 54 60 68 69 65 66 69 68 67 67 64 67 69 67 67 68 69 69 68 67 66 64 64 67 61 53 47 47 47 43 37 33 31 31 31 29 28 28 29 31 33 34 31 30 32 33 34 34 33 32 33 33 33 33 31 31 29 29 30 29 29 29 29 29 29 29 28 27 26 24 24 25 26 27 28 29 30
63 62 63 63 60 60 58 55 55 59 66 68 64 64 66 66 68 67 64 65 68 67 66 66 66 65 64 64 64 62 62 63 57 50 48 48 44 36 30 28 28 29 27 26 27 28 29 30 32 32 31 32 34 34 34 33 33 33 33 33 34 34 33 32 30 29 29 28 28 29 29 29 29 29 28 27 26 26 28 30 32 32 32 33 35
63 61 60 60 59 59 57 55 56 57 62 63 62 61 62 64 65 64 64 64 64 64 64 64 63 62 62 63 62 60 58 56 53 52 50 46 39 32 29 29 28 26 25 25 27 27 28 30 31 32 33 34 34 34 33 33 33 34 34 34 34 34 34 32 30 29 29 28 28 29 29 29 29 29 29 29 30 31 32 34 35 35 35 35 38
61 58 58 58 59 58 57 55 55 57 60 60 60 59 58 58 58 60 63 61 60 62 63 63 61 61 63 62 58 56 54 53 51 50 46 42 36 30 28 26 25 24 24 26 27 27 28 31 33 34 35 35 34 33 33 34 34 34 34 34 34 34 33 31 29 29 29 29 29 30 30 31 31 31 30 31 32 33 35 36 36 37 37 37 39
60 56 55 57 59 57 56 57 54 56 58 58 57 56 54 54 54 57 60 58 57 59 60 59 60 62 62 58 54 51 50 48 46 43 41 37 31 27 25 24 23 25 27 29 29 29 32 35 36 36 36 34 33 33 34 34 34 34 33 33 33 32 31 30 30 30 30 30 30 32 33 34 33 31 30 32 34 35 36 37 37 37 38 38 38
57 54 54 56 58 57 57 57 55 54 55 55 54 53 54 54 54 55 56 55 53 54 54 55 56 59 57 52 49 46 43 42 40 39 37 32 28 26 25 25 27 29 31 32 31 33 36 38 38 37 36 35 35 34 34 33 32 32 32 33 33 33 33 32 32 32 32 33 33 34 35 34 33 32 31 33 34 35 37 38 37 36 36 36 37
56 54 55 56 57 56 57 57 55 53 52 52 53 53 54 54 53 53 54 52 50 49 49 49 51 52 49 46 43 40 39 38 37 37 34 29 26 26 26 29 32 34 35 34 34 36 39 39 39 38 37 36 35 33 32 32 31 31 32 33 35 36 36 35 35 34 34 35 35 36 35 33 32 32 32 33 34 35 36 36 35 34 35 36 37
55 55 55 54 54 55 56 56 54 53 51 51 51 52 52 52 51 51 50 49 47 47 46 45 45 45 42 40 39 38 38 37 36 36 32 27 26 27 29 33 35 37 37 36 37 39 40 41 40 38 36 35 34 33 32 32 31 32 33 35 37 39 39 37 36 36 36 36 36 36 34 33 32 32 32 33 34 34 34 34 33 34 35 36 38
53 54 54 52 52 53 53 54 52 51 51 50 49 48 48 47 47 47 47 46 46 45 44 43 42 40 38 37 38 39 38 37 36 35 33 29 28 29 31 35 38 38 38 38 39 41 41 41 40 37 35 34 33 33 32 32 31 32 34 36 39 40 39 37 37 37 37 37 37 35 33 32 31 31 32 32 32 33 33 33 33 34 36 38 40
52 53 54 52 51 51 50 50 50 49 49 49 47 44 43 43 44 44 45 44 43 42 42 41 40 38 37 38 39 39 38 37 35 35 34 32 32 33 35 37 39 39 38 39 41 42 41 40 39 36 34 33 33 33 33 33 33 34 36 38 40 40 39 38 38 38 37 36 35 34 32 31 30 31 31 32 33 33 33 33 34 35 38 40 42
52 52 54 53 50 48 47 48 48 47 46 46 45 42 40 40 41 41 41 39 37 37 38 38 38 37 37 38 37 37 36 36 35 36 36 34 35 36 37 39 40 40 39 40 41 41 41 40 38 36 33 33 33 34 34 34 35 36 37 39 40 40 39 39 40 39 38 36 34 34 33 32 32 33 34 34 34 33 33 34 35 37 39 42 44
51 53 54 52 48 45 44 45 46 44 43 43 42 41 39 38 38 37 36 34 33 34 34 35 35 35 35 35 35 36 37 37 38 38 37 37 38 39 40 41 41 40 40 41 42 42 42 39 37 35 33 33 34 35 35 35 35 36 38 39 40 40 38 38 40 40 38 37 37 36 36 34 35 35 36 36 35 34 35 36 37 40 42 44 46
51 54 52 48 46 43 42 42 43 42 41 41 38 37 36 35 34 34 34 33 34 34 34 33 33 33 33 35 36 38 39 40 41 40 40 39 41 43 44 43 42 41 41 41 42 43 42 40 36 34 33 33 34 36 36 35 35 36 37 39 40 39 38 38 39 39 38 38 38 39 39 37 36 35 35 36 36 36 37 38 40 42 44 46 48
49 52 48 45 43 41 41 41 40 39 39 38 35 33 33 33 33 33 34 35 36 36 35 34 35 36 37 38 39 40 41 42 43 41 40 41 44 46 46 44 43 42 41 41 43 43 43 40 35 33 33 34 35 36 36 35 35 35 37 39 40 39 38 38 38 37 36 37 38 38 39 38 37 35 35 35 36 37 38 40 41 43 44 46 48
46 47 46 44 42 40 41 40 39 37 36 36 34 32 33 33 33 34 35 36 37 36 35 36 38 40 42 42 43 44 44 46 46 42 41 43 45 45 45 45 43 42 42 42 42 43 43 39 34 32 32 34 36 37 36 36 35 35 37 39 39 39 38 37 37 36 35 36 37 38 38 38 38 37 36 37 38 38 40 41 43 44 45 47 48
43 44 44 43 41 41 40 39 39 36 35 35 34 32 33 34 34 34 35 36 37 37 39 41 44 45 45 46 47 47 48 50 48 44 43 44 44 45 46 46 44 42 41 41 42 42 42 38 33 32 32 34 35 37 37 36 36 35 36 38 39 39 38 37 36 35 35 36 37 37 38 38 38 38 39 39 40 40 41 42 43 45 47 48 47
42 41 42 42 42 40 39 38 37 36 35 35 34 32 33 34 34 34 34 35 36 39 42 45 47 47 48 48 48 49 50 51 50 46 45 45 45 46 46 46 44 42 41 41 41 41 39 36 33 32 33 34 34 35 36 36 36 35 35 38 39 38 37 36 35 35 35 36 37 37 37 38 39 39 41 41 41 41 42 43 45 47 48 48 48
41 41 41 41 41 40 38 38 37 36 34 34 33 32 32 34 35 34 33 34 36 40 44 45 46 47 48 48 48 49 51 51 49 47 46 46 46 47 46 45 43 42 41 40 40 40 39 36 34 34 34 34 34 35 36 37 37 36 35 36 37 37 35 35 34 35 36 36 37 37 37 38 39 40 40 41 43 43 44 45 47 48 47 48 48
41 40 40 39 40 40 39 38 38 37 34 32 31 31 32 33 35 34 33 34 38 43 45 46 46 47 47 47 46 48 50 49 48 46 46 47 47 47 46 44 43 42 41 40 39 40 40 38 37 36 35 35 35 36 36 36 37 37 35 34 35 35 34 34 34 34 35 36 37 37 38 38 39 40 41 42 43 44 46 47 48 48 48 48 49
41 40 40 40 39 40 41 40 39 38 35 32 31 30 31 33 34 34 33 35 40 45 47 47 47 46 46 45 45 46 47 48 46 45 46 47 47 48 46 44 43 42 41 40 40 41 41 41 41 39 38 36 35 36 35 36 37 37 36 34 33 33 33 33 33 33 34 36 37 38 38 39 40 41 43 44 44 44 46 47 48 48 48 48 49
40 39 40 40 40 41 42 42 40 38 35 33 32 31 31 32 33 34 34 36 41 45 47 47 47 46 45 44 44 45 47 48 47 46 46 47 48 48 47 45 44 43 43 42 42 42 42 43 43 41 40 37 35 35 36 36 36 35 35 35 34 33 33 34 34 35 36 37 38 39 40 41 41 42 43 44 44 44 45 46 47 47 48 48 48
38 39 39 40 41 41 42 43 41 37 35 34 32 31 30 31 31 33 35 36 39 43 45 45 46 46 46 45 45 46 47 49 50 48 47 47 48 48 48 47 45 45 44 43 43 41 41 43 44 42 41 39 36 34 35 36 36 35 35 36 36 34 34 35 36 36 37 38 39 40 41 41 41 42 43 44 43 43 43 45 46 46 47 48 48
37 38 39 40 40 40 42 41 40 38 35 34 32 31 31 30 30 31 34 36 38 41 43 43 43 44 44 44 45 46 47 49 51 51 49 48 48 48 49 47 46 46 45 44 43 41 41 44 45 44 41 39 36 35 35 36 37 37 37 38 38 37 36 37 38 39 40 40 40 41 41 41 42 43 43 43 43 43 43 44 45 46 47 47 47
38 38 39 40 40 40 41 40 40 39 37 35 32 31 31 29 29 29 31 34 36 40 42 42 42 42 44 44 45 45 47 49 51 52 51 50 48 48 48 47 47 47 47 45 43 41 40 43 46 46 44 42 38 35 36 38 38 39 39 40 41 40 41 40 41 42 42 42 42 42 43 43 44 43 44 44 45 45 46 46 46 47 47 47 47
39 38 38 40 41 41 42 41 40 42 41 38 33 31 31 31 29 28 29 32 35 38 40 41 41 42 43 43 43 44 45 48 51 52 52 50 49 48 48 48 48 48 47 46 44 43 42 42 43 45 46 46 41 36 35 38 39 40 42 43 43 43 45 45 44 44 45 45 45 45 45 46 47 46 47 48 47 47 48 47 47 47 47 47 47
40 38 37 39 40 41 44 43 42 44 45 42 36 33 33 33 31 30 30 32 36 38 39 39 40 41 42 43 42 42 42 45 48 50 50 49 48 48 48 49 48 48 47 46 44 44 43 42 42 43 44 45 43 38 35 37 38 39 42 44 45 46 47 48 46 47 48 49 49 48 47 47 48 48 49 50 50 49 48 47 47 47 47 47 47
40 39 38 38 40 42 44 44 43 45 46 44 39 37 36 35 34 33 33 35 37 39 40 40 40 41 43 44 43 41 41 42 44 45 47 48 48 47 48 48 48 48 47 45 44 44 43 42 42 43 43 42 41 38 36 36 37 38 41 44 46 47 49 51 50 51 51 50 51 50 49 49 49 49 50 51 51 50 49 47 47 48 48 48 47
41 39 39 39 41 42 44 44 44 45 46 45 42 41 41 40 38 37 37 38 39 40 40 42 43 43 43 44 43 42 40 41 42 43 44 45 46 47 47 47 47 47 47 45 44 44 44 43 43 44 44 42 41 40 38 37 37 40 42 43 46 47 48 51 53 54 53 52 50 49 49 49 50 51 52 52 52 50 49 48 48 48 48 47 46
42 41 41 41 42 43 43 43 44 45 46 46 45 44 46 44 42 40 39 40 39 38 39 40 41 42 42 42 42 41 41 41 42 42 42 43 44 45 46 46 45 45 46 46 46 46 46 45 45 44 44 42 42 42 41 40 41 45 46 46 47 47 47 48 49 51 52 52 51 50 51 51 51 51 51 51 51 49 48 47 47 47 47 46 45
42 41 42 42 42 43 44 44 44 45 46 47 46 46 48 48 45 42 41 40 39 38 37 38 39 41 41 40 39 40 41 42 42 42 41 41 42 42 43 43 43 43 44 45 46 47 47 47 46 46 45 44 43 44 45 45 46 48 48 47 48 48 48 49 49 49 50 51 51 52 52 53 53 51 50 50 50 47 46 45 45 46 46 45 45
41 41 42 43 43 43 43 44 46 46 46 47 47 47 49 49 47 43 41 41 40 39 38 38 39 40 40 39 38 38 38 40 42 41 41 42 42 41 41 42 41 41 41 42 44 45 46 46 47 46 46 45 45 45 46 47 47 47 48 49 49 49 49 50 51 51 52 53 54 54 52 52 53 52 51 50 49 47 45 45 48 49 48 47 46
40 40 42 43 43 42 43 44 46 48 49 49 48 48 48 48 47 45 43 43 42 41 39 39 40 40 40 40 40 38 38 39 41 41 41 42 43 42 41 42 41 40 40 41 42 43 44 44 45 45 45 44 44 44 45 47 47 47 48 49 49 49 49 50 51 51 52 53 55 55 53 52 52 52 52 51 51 51 50 51 53 53 49 48 47